1330214425387,136.095
1330214485387,136.551
1330214545387,136.412
1330214605387,136.500
1330214665387,136.503
1330214725387,136.629
1330214785387,136.736
1330214845387,136.527
1330214905387,136.515
1330214965387,136.466
1330215025387,136.580
1330215085387,136.297
1330215145387,136.375
1330215205387,136.278
1330215265387,136.416
1330215325387,136.386
1330215385387,136.489
1330215445387,136.306
1330215505387,136.528
1330215565387,136.424
1330215625387,136.307
1330215685387,136.267
1330215745387,136.568
1330215805387,136.193
1330215865387,136.727
1330215925387,136.574
1330215985387,136.495
1330216045387,136.449
1330216105387,136.255
1330216165387,136.532
1330216225387,136.517
1330216285387,136.138
1330216345387,136.485
1330216405387,136.339
1330216465387,136.270
1330216525387,136.614
1330216585387,136.348
1330216645387,136.220
1330216705387,136.776
1330216765387,136.744
1330216825387,136.167
1330216885387,136.414
1330216945387,136.485
1330217005387,136.614
1330217065387,136.131
1330217125387,136.484
1330217185387,136.453
1330217245387,136.469
1330217305387,136.227
1330217365387,136.388
1330217425387,136.375
1330217485387,136.379
1330217545387,136.455
1330217605387,136.599
1330217665387,136.419
1330217725387,136.262
1330217785387,136.318
1330217845387,135.977
1330217905387,135.973
1330217965387,136.179
1330218025398,136.354
1330218085398,136.328
1330218145398,136.157
1330218205398,136.207
1330218265398,136.105
1330218325398,136.334
1330218385398,136.213
1330218445398,136.311
1330218505398,136.243
1330218565398,136.299
1330218625398,136.085
1330218685398,136.424
1330218745398,136.209
1330218805398,136.385
1330218865398,136.116
1330218925398,136.376
1330218985398,136.434
1330219045398,136.294
1330219105398,136.275
1330219165398,136.176
1330219225398,136.320
1330219285398,136.484
1330219345398,136.319
1330219405398,136.416
1330219465398,136.249
1330219525398,136.170
1330219585398,136.164
1330219645398,136.162
1330219705398,136.263
1330219765398,136.228
1330219825398,136.491
1330219885398,136.330
1330219945398,136.204
1330220005398,136.212
1330220065398,136.417
1330220125398,136.175
1330220185398,136.420
1330220245398,136.332
1330220305398,136.476
1330220365398,136.133
1330220425398,136.361
1330220485398,136.007
1330220545398,136.264
1330220605398,136.289
1330220665398,136.187
1330220725398,136.099
1330220785398,136.229
1330220845398,136.504
1330220905398,136.534
1330220965398,136.184
1330221025398,136.438
1330221085398,136.233
1330221145398,136.316
1330221205398,136.501
1330221265398,136.236
1330221325398,136.309
1330221385398,136.226
1330221445398,136.476
1330221505398,136.361
1330221565398,136.507
1330221625410,136.378
1330221685410,136.225
1330221745410,136.310
1330221805410,136.377
1330221865410,136.445
1330221925410,136.172
1330221985410,135.976
1330222045410,136.135
1330222105410,136.082
1330222165410,136.148
1330222225410,136.196
1330222285410,135.750
1330222345410,136.170
1330222405410,136.070
1330222465410,136.173
1330222525410,136.207
1330222585410,136.098
1330222645410,136.004
1330222705410,136.109
1330222765410,135.763
1330222825410,135.943
1330222885410,135.980
1330222945410,135.907
1330223005410,136.066
1330223065410,136.075
1330223125410,135.938
1330223185410,136.224
1330223245410,136.133
1330223305410,135.872
1330223365410,136.078
1330223425410,135.854
1330223485410,136.175
1330223545410,135.862
1330223605410,135.601
1330223665410,135.832
1330223725410,135.715
1330223785410,135.875
1330223845410,135.922
1330223905410,135.922
1330223965410,135.903
1330224025410,135.839
1330224085410,135.828
1330224145410,136.127
1330224205410,135.674
1330224265410,135.690
1330224325410,135.748
1330224385410,135.903
1330224445410,135.665
1330224505410,135.608
1330224565410,135.770
1330224625410,135.691
1330224685410,135.635
1330224745410,135.820
1330224805410,135.653
1330224865410,135.817
1330224925410,135.586
1330224985410,135.638
1330225045410,135.581
1330225105410,135.772
1330225165410,135.704
1330225225421,135.627
1330225285421,135.655
1330225345421,135.503
1330225405421,135.541
1330225465421,135.635
1330225525421,135.477
1330225585421,135.406
1330225645421,135.654
1330225705421,135.273
1330225765421,135.612
1330225825421,135.473
1330225885421,135.449
1330225945421,135.669
1330226005421,135.491
1330226065421,135.640
1330226125421,135.391
1330226185421,135.479
1330226245421,135.696
1330226305421,135.730
1330226365421,135.549
1330226425421,135.326
1330226485421,135.630
1330226545421,135.390
1330226605421,135.704
1330226665421,135.433
1330226725421,135.534
1330226785421,135.573
1330226845421,135.584
1330226905421,135.666
1330226965421,135.819
1330227025421,135.784
1330227085421,135.701
1330227145421,135.661
1330227205421,135.886
1330227265421,135.723
1330227325421,135.625
1330227385421,135.577
1330227445421,135.485
1330227505421,135.348
1330227565421,135.176
1330227625421,135.377
1330227685421,135.520
1330227745421,135.664
1330227805421,135.314
1330227865421,135.481
1330227925421,135.678
1330227985421,135.370
1330228045421,135.322
1330228105421,135.660
1330228165421,135.495
1330228225421,135.639
1330228285421,135.637
1330228345421,135.576
1330228405421,135.596
1330228465421,135.599
1330228525421,135.580
1330228585421,135.491
1330228645421,135.587
1330228705421,135.600
1330228765421,135.666
1330228825433,135.662
1330228885433,135.524
1330228945433,135.581
1330229005433,135.473
1330229065433,135.858
1330229125433,135.432
1330229185433,135.530
1330229245433,135.393
1330229305433,135.497
1330229365433,135.615
1330229425433,135.508
1330229485433,135.457
1330229545433,135.581
1330229605433,135.489
1330229665433,135.996
1330229725433,135.718
1330229785433,135.650
1330229845433,135.711
1330229905433,135.764
1330229965433,135.620
1330230025433,135.328
1330230085433,135.664
1330230145433,135.483
1330230205433,135.686
1330230265433,135.606
1330230325433,135.564
1330230385433,135.464
1330230445433,135.834
1330230505433,135.507
1330230565433,135.471
1330230625433,135.512
1330230685433,135.679
1330230745433,135.649
1330230805433,135.510
1330230865433,135.690
1330230925433,135.935
1330230985433,135.962
1330231045433,135.990
1330231105433,135.725
1330231165433,135.498
1330231225433,135.916
1330231285433,135.970
1330231345433,135.376
1330231405433,135.759
1330231465433,135.847
1330231525433,135.888
1330231585433,135.613
1330231645433,135.732
1330231705433,135.719
1330231765433,135.744
1330231825433,135.669
1330231885433,135.737
1330231945433,135.661
1330232005433,135.854
1330232065433,135.750
1330232125433,135.827
1330232185433,135.931
1330232245433,135.924
1330232305433,135.646
1330232365433,135.737
1330232425445,135.904
1330232485445,135.607
1330232545445,135.498
1330232605445,135.835
1330232665445,135.657
1330232725445,135.550
1330232785445,135.623
1330232845445,135.974
1330232905445,135.760
1330232965445,135.876
1330233025445,135.819
1330233085445,135.877
1330233145445,135.819
1330233205445,135.917
1330233265445,136.076
1330233325445,135.960
1330233385445,135.771
1330233445445,135.883
1330233505445,135.781
1330233565445,135.869
1330233625445,136.094
1330233685445,136.038
1330233745445,135.975
1330233805445,135.949
1330233865445,135.796
1330233925445,136.291
1330233985445,135.720
1330234045445,135.845
1330234105445,136.083
1330234165445,135.931
1330234225445,135.965
1330234285445,136.019
1330234345445,135.976
1330234405445,135.907
1330234465445,136.064
1330234525445,136.186
1330234585445,136.135
1330234645445,135.832
1330234705445,136.024
1330234765445,136.098
1330234825445,135.994
1330234885445,136.006
1330234945445,136.000
1330235005445,136.117
1330235065445,136.066
1330235125445,135.866
1330235185445,136.142
1330235245445,136.080
1330235305445,136.153
1330235365445,136.115
1330235425445,136.250
1330235485445,136.226
1330235545445,136.215
1330235605445,135.792
1330235665445,136.128
1330235725445,135.836
1330235785445,136.045
1330235845445,136.139
1330235905445,136.089
1330235965445,136.301
1330236025457,136.073
1330236085457,136.032
1330236145457,136.037
1330236205457,136.071
1330236265457,136.332
1330236325457,136.049
1330236385457,135.972
1330236445457,135.903
1330236505457,136.224
1330236565457,136.132
1330236625457,136.177
1330236685457,135.865
1330236745457,136.194
1330236805457,136.090
1330236865457,135.939
1330236925457,136.091
1330236985457,135.856
1330237045457,135.906
1330237105457,136.013
1330237165457,135.908
1330237225457,136.057
1330237285457,135.654
1330237345457,135.714
1330237405457,136.114
1330237465457,136.008
1330237525457,135.976
1330237585457,135.979
1330237645457,136.047
1330237705457,136.115
1330237765457,135.913
1330237825457,135.866
1330237885457,136.183
1330237945457,136.128
1330238005457,136.132
1330238065457,135.867
1330238125457,136.332
1330238185457,136.021
1330238245457,136.400
1330238305457,136.041
1330238365457,135.965
1330238425457,136.242
1330238485457,136.144
1330238545457,136.218
1330238605457,135.959
1330238665457,136.160
1330238725457,136.135
1330238785457,136.111
1330238845457,136.087
1330238905457,136.092
1330238965457,135.866
1330239025457,136.253
1330239085457,135.772
1330239145457,135.930
1330239205457,136.221
1330239265457,136.153
1330239325457,136.183
1330239385457,135.933
1330239445457,136.048
1330239505457,136.302
1330239565457,136.540
1330239625468,136.057
1330239685468,136.342
1330239745468,136.157
1330239805468,136.520
1330239865468,136.301
1330239925468,136.298
1330239985468,136.299
1330240045468,136.467
1330240105468,136.085
1330240165468,136.199
1330240225468,136.236
1330240285468,136.038
1330240345468,136.088
1330240405468,136.020
1330240465468,136.453
1330240525468,136.463
1330240585468,136.261
1330240645468,136.378
1330240705468,136.284
1330240765468,136.678
1330240825468,136.438
1330240885468,136.384
1330240945468,136.579
1330241005468,136.370
1330241065468,136.532
1330241125468,136.412
1330241185468,136.429
1330241245468,136.485
1330241305468,136.231
1330241365468,136.081
1330241425468,136.327
1330241485468,136.288
1330241545468,136.493
1330241605468,136.435
1330241665468,136.419
1330241725468,136.128
1330241785468,136.238
1330241845468,136.111
1330241905468,136.303
1330241965468,135.814
1330242025468,136.296
1330242085468,136.125
1330242145468,136.226
1330242205468,135.982
1330242265468,135.787
1330242325468,135.916
1330242385468,135.688
1330242445468,135.952
1330242505468,135.925
1330242565468,135.997
1330242625468,135.784
1330242685468,135.737
1330242745468,135.616
1330242805468,135.910
1330242865468,135.764
1330242925468,135.720
1330242985468,136.041
1330243045468,135.960
1330243105468,135.937
1330243165468,135.971
1330243225480,136.030
1330243285480,135.551
1330243345480,135.965
1330243405480,135.729
1330243465480,135.901
1330243525480,135.669
1330243585480,135.872
1330243645480,136.026
1330243705480,135.930
1330243765480,136.166
1330243825480,136.097
1330243885480,135.796
1330243945480,135.975
1330244005480,135.986
1330244065480,136.310
1330244125480,136.181
1330244185480,136.380
1330244245480,136.067
1330244305480,136.002
1330244365480,136.012
1330244425480,135.822
1330244485480,135.964
1330244545480,135.928
1330244605480,136.003
1330244665480,135.979
1330244725480,136.105
1330244785480,135.636
1330244845480,135.960
1330244905480,135.984
1330244965480,136.258
1330245025480,136.324
1330245085480,136.038
1330245145480,136.162
1330245205480,136.012
1330245265480,135.948
1330245325480,135.993
1330245385480,136.099
1330245445480,136.077
1330245505480,136.179
1330245565480,135.973
1330245625480,135.729
1330245685480,135.948
1330245745480,136.023
1330245805480,136.050
1330245865480,135.678
1330245925480,135.824
1330245985480,135.976
1330246045480,135.503
1330246105480,135.658
1330246165480,135.813
1330246225480,136.008
1330246285480,135.863
1330246345480,136.088
1330246405480,136.372
1330246465480,135.851
1330246525480,135.938
1330246585480,135.935
1330246645480,135.973
1330246705480,136.038
1330246765480,135.869
1330246825492,135.798
1330246885492,135.730
1330246945492,135.587
1330247005492,135.608
1330247065492,135.755
1330247125492,135.674
1330247185492,135.917
1330247245492,135.782
1330247305492,135.837
1330247365492,136.019
1330247425492,135.726
1330247485492,135.771
1330247545492,135.737
1330247605492,135.945
1330247665492,135.615
1330247725492,135.891
1330247785492,135.777
1330247845492,135.333
1330247905492,135.693
1330247965492,135.644
1330248025492,135.369
1330248085492,135.561
1330248145492,135.668
1330248205492,135.577
1330248265492,135.908
1330248325492,135.705
1330248385492,135.481
1330248445492,135.430
1330248505492,135.336
1330248565492,135.343
1330248625492,135.567
1330248685492,135.422
1330248745492,135.690
1330248805492,135.633
1330248865492,135.707
1330248925492,135.510
1330248985492,135.321
1330249045492,135.220
1330249105492,135.286
1330249165492,135.165
1330249225492,135.364
1330249285492,135.150
1330249345492,135.175
1330249405492,135.342
1330249465492,135.263
1330249525492,135.090
1330249585492,135.435
1330249645492,135.313
1330249705492,135.263
1330249765492,135.243
1330249825492,135.143
1330249885492,135.323
1330249945492,134.943
1330250005492,135.104
1330250065492,135.521
1330250125492,135.123
1330250185492,135.019
1330250245492,135.000
1330250305492,134.946
1330250365492,134.902
1330250425504,135.133
1330250485504,135.003
1330250545504,135.040
1330250605504,134.947
1330250665504,135.160
1330250725504,135.051
1330250785504,134.988
1330250845504,135.314
1330250905504,135.029
1330250965504,135.094
1330251025504,135.269
1330251085504,135.081
1330251145504,134.889
1330251205504,135.128
1330251265504,135.223
1330251325504,135.226
1330251385504,135.072
1330251445504,135.070
1330251505504,135.321
1330251565504,134.944
1330251625504,135.324
1330251685504,135.145
1330251745504,135.394
1330251805504,135.257
1330251865504,135.437
1330251925504,135.331
1330251985504,134.980
1330252045504,135.138
1330252105504,135.159
1330252165504,135.336
1330252225504,135.209
1330252285504,135.290
1330252345504,135.155
1330252405504,135.401
1330252465504,135.210
1330252525504,135.416
1330252585504,135.638
1330252645504,135.458
1330252705504,135.900
1330252765504,135.501
1330252825504,135.414
1330252885504,135.560
1330252945504,135.461
1330253005504,135.495
1330253065504,135.516
1330253125504,135.344
1330253185504,135.465
1330253245504,135.348
1330253305504,135.148
1330253365504,135.192
1330253425504,135.423
1330253485504,135.252
1330253545504,135.179
1330253605504,135.566
1330253665504,135.256
1330253725504,135.408
1330253785504,135.164
1330253845504,135.514
1330253905504,135.479
1330253965504,135.737
1330254025515,134.969
1330254085515,135.257
1330254145515,135.409
1330254205515,135.336
1330254265515,135.473
1330254325515,135.526
1330254385515,135.326
1330254445515,135.335
1330254505515,135.361
1330254565515,135.504
1330254625515,135.456
1330254685515,135.144
1330254745515,135.355
1330254805515,135.407
1330254865515,135.520
1330254925515,135.484
1330254985515,135.486
1330255045515,135.480
1330255105515,135.575
1330255165515,135.486
1330255225515,135.272
1330255285515,135.256
1330255345515,135.420
1330255405515,135.669
1330255465515,135.830
1330255525515,135.827
1330255585515,135.656
1330255645515,135.624
1330255705515,135.603
1330255765515,135.848
1330255825515,135.446
1330255885515,135.518
1330255945515,135.470
1330256005515,135.829
1330256065515,135.396
1330256125515,135.381
1330256185515,135.688
1330256245515,135.707
1330256305515,135.674
1330256365515,135.695
1330256425515,136.046
1330256485515,135.604
1330256545515,135.615
1330256605515,135.518
1330256665515,135.785
1330256725515,135.554
1330256785515,135.593
1330256845515,135.547
1330256905515,135.835
1330256965515,135.543
1330257025515,135.735
1330257085515,135.337
1330257145515,135.648
1330257205515,135.783
1330257265515,135.878
1330257325515,135.765
1330257385515,135.835
1330257445515,135.822
1330257505515,135.852
1330257565515,135.781
1330257625527,135.804
1330257685527,135.657
1330257745527,135.876
1330257805527,135.907
1330257865527,135.674
1330257925527,135.578
1330257985527,135.572
1330258045527,135.264
1330258105527,135.377
1330258165527,135.451
1330258225527,135.454
1330258285527,135.517
1330258345527,135.213
1330258405527,135.685
1330258465527,135.350
1330258525527,135.322
1330258585527,135.420
1330258645527,135.369
1330258705527,135.428
1330258765527,135.466
1330258825527,135.310
1330258885527,135.395
1330258945527,135.461
1330259005527,135.220
1330259065527,135.199
1330259125527,135.092
1330259185527,135.276
1330259245527,135.264
1330259305527,135.294
1330259365527,135.160
1330259425527,135.403
1330259485527,135.272
1330259545527,135.565
1330259605527,135.418
1330259665527,135.212
1330259725527,135.563
1330259785527,135.134
1330259845527,135.029
1330259905527,135.412
1330259965527,135.144
1330260025527,134.921
1330260085527,135.034
1330260145527,135.209
1330260205527,135.243
1330260265527,135.168
1330260325527,135.227
1330260385527,135.043
1330260445527,134.898
1330260505527,135.023
1330260565527,134.996
1330260625527,135.129
1330260685527,134.914
1330260745527,135.067
1330260805527,134.941
1330260865527,134.949
1330260925527,135.204
1330260985527,135.308
1330261045527,135.272
1330261105527,135.192
1330261165527,135.192
1330261225539,134.857
1330261285539,135.124
1330261345539,134.982
1330261405539,134.746
1330261465539,135.108
1330261525539,135.254
1330261585539,134.966
1330261645539,134.857
1330261705539,134.855
1330261765539,134.892
1330261825539,135.180
1330261885539,135.212
1330261945539,135.062
1330262005539,134.675
1330262065539,135.044
1330262125539,135.090
1330262185539,134.972
1330262245539,135.453
1330262305539,135.221
1330262365539,135.048
1330262425539,135.243
1330262485539,135.347
1330262545539,134.987
1330262605539,134.893
1330263745539,135.612
1330263805539,135.246
1330263865539,134.924
1330263925539,135.162
1330263985539,134.940
1330264045539,135.108
1330264105539,135.097
1330264165539,135.103
1330264225539,134.958
1330264285539,135.030
1330264345539,135.163
1330264405539,135.067
1330264465539,134.953
1330264525539,135.367
1330264585539,135.079
1330264645539,135.027
1330264705539,134.967
1330264765539,135.303
1330264825550,135.426
1330264885550,135.053
1330264945550,134.993
1330265005550,135.033
1330265065550,135.318
1330265125550,135.412
1330265185550,135.068
1330265245550,135.063
1330265305550,135.161
1330265365550,135.103
1330265425550,135.230
1330265485550,135.558
1330265545550,134.708
1330265605550,135.258
1330265665550,135.209
1330265725550,135.067
1330265785550,135.087
1330265845550,135.085
1330265905550,135.229
1330265965550,135.045
1330266025550,134.985
1330266085550,134.865
1330266145550,135.136
1330266205550,135.062
1330266265550,135.209
1330266325550,135.057
1330266385550,135.104
1330266445550,134.778
1330266505550,134.982
1330266565550,135.129
1330266625550,135.080
1330266685550,135.196
1330266745550,135.329
1330266805550,135.015
1330266865550,134.891
1330266925550,135.286
1330266985550,135.540
1330267045550,134.993
1330267105550,135.531
1330267165550,135.128
1330267225550,135.052
1330267285550,134.966
1330267345550,135.200
1330267405550,134.994
1330267465550,135.210
1330267525550,134.932
1330267585550,135.238
1330267645550,135.197
1330267705550,135.001
1330267765550,135.021
1330267825550,135.174
1330267885550,135.015
1330267945550,135.186
1330268005550,135.221
1330268065550,134.944
1330268125550,134.860
1330268185550,135.232
1330268245550,135.183
1330268305550,134.986
1330268365550,135.167
1330268425562,134.824
1330268485562,135.184
1330268545562,135.058
1330268605562,135.115
1330268665562,134.950
1330268725562,135.077
1330268785562,134.862
1330268845562,134.932
1330268905562,135.012
1330268965562,135.205
1330269025562,135.045
1330269085562,134.858
1330269145562,134.703
1330269205562,134.831
1330269265562,134.718
1330269325562,134.976
1330269385562,134.690
1330269445562,134.843
1330269505562,134.782
1330269565562,134.684
1330269625562,134.845
1330269685562,134.676
1330269745562,134.989
1330269805562,134.799
1330269865562,135.100
1330269925562,134.723
1330269985562,134.828
1330270045562,135.009
1330270105562,134.752
1330270165562,134.781
1330270225562,134.594
1330270285562,134.757
1330270345562,134.733
1330270405562,134.617
1330270465562,134.520
1330270525562,134.679
1330270585562,134.611
1330270645562,134.774
1330270705562,134.517
1330270765562,134.764
1330270825562,134.484
1330270885562,134.708
1330270945562,134.519
1330271005562,134.593
1330271065562,134.687
1330271125562,134.603
1330271185562,134.677
1330271245562,134.612
1330271305562,134.688
1330271365562,134.794
1330271425562,134.528
1330271485562,134.510
1330271545562,134.803
1330271605562,134.548
1330271665562,134.693
1330271725562,134.784
1330271785562,134.685
1330271845562,134.661
1330271905562,134.692
1330271965562,134.428
1330272025573,134.715
1330272085573,134.691
1330272145573,134.580
1330272205573,134.365
1330272265573,134.596
1330272325573,134.611
1330272385573,134.678
1330272445573,134.537
1330272505573,134.302
1330272565573,134.441
1330272625573,134.749
1330272685573,134.265
1330272745573,134.266
1330272805573,134.600
1330272865573,134.564
1330272925573,134.217
1330272985573,134.639
1330273045573,134.390
1330273105573,134.553
1330273165573,134.287
1330273225573,134.464
1330273285573,134.416
1330273345573,134.481
1330273405573,134.325
1330273465573,134.312
1330273525573,134.259
1330273585573,134.506
1330273645573,134.096
1330273705573,134.238
1330273765573,134.392
1330273825573,134.125
1330273885573,134.336
1330273945573,134.066
1330274005573,134.251
1330274065573,134.172
1330274125573,134.282
1330274185573,134.274
1330274245573,134.278
1330274305573,134.478
1330274365573,134.610
1330274425573,134.333
1330274485573,134.383
1330274545573,134.266
1330274605573,134.227
1330274665573,134.306
1330274725573,134.349
1330274785573,134.599
1330274845573,134.281
1330274905573,134.014
1330274965573,134.325
1330275025573,134.154
1330275085573,134.433
1330275145573,134.242
1330275205573,134.160
1330275265573,134.279
1330275325573,134.399
1330275385573,134.288
1330275445573,134.311
1330275505573,134.247
1330275565573,134.001
1330275625585,134.165
1330275685585,133.776
1330275745585,134.221
1330275805585,134.227
1330275865585,133.987
1330275925585,134.384
1330275985585,134.081
1330276045585,134.136
1330276105585,133.892
1330276165585,134.332
1330276225585,134.024
1330276285585,134.015
1330276345585,133.879
1330276405585,134.039
1330276465585,134.190
1330276525585,134.286
1330276585585,133.993
1330276645585,134.090
1330276705585,134.050
1330276765585,134.016
1330276825585,133.997
1330276885585,134.144
1330276945585,134.199
1330277005585,134.074
1330277065585,133.844
1330277125585,133.796
1330277185585,133.652
1330277245585,133.786
1330277305585,133.645
1330277365585,133.961
1330277425585,134.183
1330277485585,134.005
1330277545585,133.680
1330277605585,134.078
1330277665585,134.202
1330277725585,133.989
1330277785585,134.048
1330277845585,134.055
1330277905585,133.915
1330277965585,134.326
1330278025585,134.132
1330278085585,134.275
1330278145585,134.315
1330278205585,134.060
1330278265585,133.951
1330278325585,134.212
1330278385585,133.994
1330278445585,134.124
1330278505585,134.291
1330278565585,134.227
1330278625585,134.267
1330278685585,134.410
1330278745585,134.214
1330278805585,134.135
1330278865585,134.194
1330278925585,134.116
1330278985585,134.299
1330279045585,134.152
1330279105585,134.142
1330279165585,134.069
1330279225596,134.406
1330279285596,134.171
1330279345596,134.172
1330279405596,134.041
1330279465596,134.250
1330279525596,134.198
1330279585596,134.293
1330279645596,134.407
1330279705596,134.179
1330279765596,134.075
1330279825596,134.471
1330279885596,134.235
1330279945596,134.219
1330280005596,134.139
1330280065596,134.337
1330280125596,134.150
1330280185596,134.686
1330280245596,134.133
1330280305596,134.086
1330280365596,134.256
1330280425596,134.139
1330280485596,134.193
1330280545596,134.398
1330280605596,134.218
1330280665596,134.035
1330280725596,134.214
1330280785596,134.365
1330280845596,134.203